Flag for Germany Weather past 2 weeks in Rotenburg (Wümme), Lower Saxony, Germany

Now
72 °F

Partly sunny.


Feels Like: 73 °F
Forecast: 60 / 75 °F
Wind: 2 mph from Northeast

Location: Bremen

Current Time: Jul 29, 2014 at 9:12:09 AM

Latest Report: Jul 29, 2014 at 9:00 AM


Visibility: 9 mi

Pressure: 29.85 "Hg

Humidity: 75%

Dew point: 63 °F

Location of Rotenburg (Wümme)Location

Historic Weather in Rotenburg (Wümme) — Graph

°F

Rotenburg (Wümme) temperature yesterday

Maximum temperature yesterday: 81 °F (at 4:00 PM)
Minimum temperature yesterday: 58 °F (at 4:00 AM)
Average temperature yesterday: 71 °F

Past Weeks' High & Low Weather Summary

 TemperatureHumidityPressure
High90 °F (Jul 19, 5:00 PM)98% (Jul 16, 7:00 AM)30.18 "Hg (Jul 16, 7:00 AM)
Low54 °F (Jul 17, 5:00 AM)27% (Jul 19, 5:00 PM)29.74 "Hg (Jul 14, 8:00 AM)
Average71 °F71%29.98 "Hg
* Reported Jul 14 8:00 AM — Jul 29 8:00 AM, Rotenburg (Wümme), Weather by CustomWeather, © 2014

Note: Actual official high and low records may vary slightly from our data, if they occured in-between our weather recording intervals... More about our weather records

Advertising

Rotenburg (Wümme) weather history for previous 24 hours

 ConditionsComfort  
Time TempWeatherWind HumidityBarometerVisibility
8:00 AM
Jul 29
68 °FPartly sunny.3 mph81%29.85 "Hg8 mi
7:00 AM66 °FPartly sunny.2 mph85%29.85 "Hg9 mi
6:00 AM66 °FScattered clouds.3 mph85%29.85 "Hg11 mi
5:00 AM67 °FPassing clouds.5 mph83%29.85 "Hg16 mi
4:00 AM67 °FPassing clouds.3 mph82%29.85 "Hg16 mi
3:00 AM68 °FPassing clouds.3 mph80%29.85 "Hg16 mi
2:00 AM69 °FPassing clouds.3 mph78%29.86 "Hg16 mi
1:00 AM71 °FPassing clouds.5 mph75%29.87 "Hg14 mi
12:00 AM71 °FPassing clouds.5 mph73%29.87 "Hg14 mi
10:00 PM
Jul 28
76 °FPassing clouds.5 mph62%29.88 "Hg11 mi
9:00 PM77 °FPartly sunny.3 mph55%29.85 "Hg14 mi
8:00 PM79 °FScattered clouds.3 mph54%29.85 "Hg16 mi
7:00 PM81 °FScattered clouds.5 mph49%29.84 "Hg22 mi
6:00 PM81 °FScattered clouds.6 mph46%29.85 "Hg19 mi
4:00 PM81 °FScattered clouds.5 mph49%29.87 "Hg16 mi
3:00 PM79 °FPartly sunny.6 mph53%29.88 "Hg16 mi
2:00 PM78 °FPartly sunny.6 mph59%29.90 "Hg16 mi
1:00 PM76 °FPartly sunny.6 mph67%29.92 "Hg16 mi
12:00 PM73 °FPartly sunny.3 mph69%29.93 "Hg11 mi
11:00 AM69 °FOvercast.3 mph81%29.94 "Hg5 mi
10:00 AM68 °FFog.5 mph86%29.94 "Hg4 mi
9:00 AM68 °FFog.2 mph92%29.95 "Hg4 mi
Weather by CustomWeather, © 2014

See weather overviewHow to use our weather pages